GW3896 Weather Reports


Display with metric or nautical units.
time (UTC)temp
F
wind
direction
speed
MPH
gust
MPH
rain 1hr
in
rain 24hr
in
rain mn
in
humidity
%
barometer
mb
20260505121318 68 139 3.0 3.0 0.00 0.02 0.02 65 1010.0
20260505120814 68 242 5.0 6.0 0.00 0.02 0.02 65 1009.9
20260505120310 67 223 7.0 9.0 0.00 0.02 0.02 64 1009.6
20260505115808 67 250 2.0 2.0 0.00 0.02 0.02 66 1010.0
20260505115306 67 215 3.0 3.0 0.00 0.02 0.02 66 1009.9
20260505114803 66 233 6.0 10.0 0.00 0.02 0.02 67 1009.7
20260505114259 66 224 2.0 3.0 0.00 0.02 0.02 67 1009.7
20260505113756 66 264 4.0 6.0 0.00 0.02 0.02 67 1009.9
20260505113252 66 239 2.0 3.0 0.00 0.02 0.02 68 1009.7
20260505112748 65 254 3.0 5.0 0.00 0.02 0.02 68 1010.1
20260505112246 65 227 5.0 8.0 0.00 0.02 0.02 68 1009.6
20260505111746 65 268 2.0 2.0 0.00 0.02 0.02 69 1009.7
20260505111242 65 256 3.0 3.0 0.00 0.02 0.02 69 1009.7
20260505110738 65 254 3.0 5.0 0.00 0.02 0.02 69 1009.5
20260505110236 65 216 3.0 5.0 0.00 0.02 0.02 69 1009.7
20260505102211 63 254 1.0 2.0 0.00 0.02 0.02 75 1009.9
20260505101710 63 247 2.0 2.0 0.00 0.02 0.02 77 1009.5
20260505101206 63 245 1.0 1.0 0.00 0.02 0.02 78 1009.3
20260505100702 63 216 1.0 1.0 0.00 0.02 0.02 77 1009.4
20260505100159 63 234 2.0 2.0 0.00 0.02 0.02 79 1009.2
20260505095655 63 254 2.0 2.0 0.00 0.02 0.02 78 1009.5
20260505095153 62 239 2.0 2.0 0.00 0.02 0.02 79 1009.4
20260505094648 62 245 1.0 1.0 0.00 0.02 0.02 79 1009.4
20260505094145 63 232 2.0 2.0 0.00 0.02 0.02 79 1009.3
20260505093641 63 270 3.0 3.0 0.00 0.02 0.02 78 1009.2
20260505093139 63 253 4.0 5.0 0.00 0.02 0.02 79 1009.1
20260505092636 63 244 0.0 1.0 0.07 0.02 0.02 78 1009.3
20260505092135 64 269 3.0 5.0 0.12 0.02 0.02 77 1009.0
20260505091631 65 244 1.0 2.0 0.05 0.01 0.01 73 1009.0
20260505091129 66 228 2.0 2.0 0.00 0.00 0.00 70 1008.9
20260505090626 65 248 5.0 6.0 0.00 0.00 0.00 71 1008.9
20260505090124 65 276 6.0 8.0 0.00 0.00 0.00 71 1008.7
20260505085621 66 248 2.0 3.0 0.00 0.00 0.00 70 1008.9
20260505085120 67 198 4.0 5.0 0.00 0.00 0.00 67 1008.6
20260505084617 67 240 2.0 2.0 0.00 0.00 0.00 66 1008.6
20260505084116 67 201 3.0 6.0 0.00 0.00 0.00 66 1008.5
20260505083613 67 242 4.0 6.0 0.00 0.00 0.00 66 1008.4
20260505083109 67 249 3.0 5.0 0.00 0.00 0.00 66 1008.7
20260505082605 67 258 10.0 11.0 0.00 0.00 0.00 65 1008.5
20260505082102 67 212 5.0 7.0 0.00 0.00 0.00 65 1008.5
20260505081558 67 274 3.0 5.0 0.00 0.00 0.00 65 1008.4
20260505081055 67 246 4.0 6.0 0.00 0.00 0.00 66 1008.3
20260505080551 67 256 7.0 10.0 0.00 0.00 0.00 65 1008.4
20260505080049 67 286 5.0 6.0 0.00 0.00 0.00 65 1008.3
20260505075544 67 232 1.0 2.0 0.00 0.00 0.00 65 1008.3
20260505075041 67 217 3.0 3.0 0.00 0.00 0.00 65 1008.2
20260505074538 67 258 4.0 6.0 0.00 0.00 0.00 64 1008.3
20260505074035 67 264 4.0 6.0 0.00 0.00 0.00 64 1008.2
20260505073533 67 227 9.0 13.0 0.00 0.00 0.00 63 1008.1
20260505073032 68 255 2.0 3.0 0.00 0.00 0.00 63 1008.1
20260505072526 68 254 7.0 8.0 0.00 0.00 0.00 63 1008.1
20260505072023 68 272 6.0 8.0 0.00 0.00 0.00 63 1008.2
20260505071518 68 250 1.0 1.0 0.00 0.00 0.00 63 1007.8
20260505071017 68 214 7.0 8.0 0.00 0.00 0.00 63 1007.9
20260505070514 68 252 3.0 3.0 0.00 0.00 0.00 63 1008.1
20260505070010 68 270 5.0 9.0 0.00 0.00 0.00 63 1008.2
20260505065506 68 197 5.0 7.0 0.00 0.00 0.00 63 1008.0
20260505065002 68 256 3.0 6.0 0.00 0.00 0.00 62 1008.3
20260505064459 68 272 3.0 5.0 0.00 0.00 0.00 63 1008.0
20260505063958 68 215 3.0 5.0 0.00 0.00 0.00 62 1008.3
20260505063454 68 236 1.0 2.0 0.00 0.00 0.00 63 1008.3
20260505062950 68 243 5.0 6.0 0.00 0.00 0.00 62 1008.4
20260505062448 68 250 4.0 5.0 0.00 0.00 0.00 63 1008.4
20260505061944 67 256 5.0 7.0 0.00 0.00 0.00 63 1008.3
20260505061443 68 238 3.0 6.0 0.00 0.00 0.00 62 1008.5
20260505060940 68 252 5.0 7.0 0.00 0.00 0.00 62 1008.5
20260505060437 68 266 5.0 8.0 0.00 0.00 0.00 62 1008.2
20260505055933 68 234 3.0 3.0 0.00 0.00 0.00 62 1008.4
20260505055429 68 241 5.0 8.0 0.00 0.00 0.00 62 1008.4
20260505054926 67 240 5.0 6.0 0.00 0.00 0.00 62 1008.5
20260505054423 67 238 5.0 7.0 0.00 0.00 0.00 63 1008.4
20260505053921 67 252 3.0 5.0 0.00 0.00 0.00 64 1008.7
20260505053418 67 225 3.0 5.0 0.00 0.00 0.00 64 1008.7
20260505052915 67 231 1.0 1.0 0.00 0.00 0.00 64 1008.6
20260505052412 67 202 2.0 2.0 0.00 0.00 0.00 65 1008.5
20260505051909 67 221 3.0 3.0 0.00 0.00 0.00 65 1008.4
20260505051406 66 217 1.0 2.0 0.00 0.00 0.00 67 1008.4
20260505050904 67 187 1.0 1.0 0.00 0.00 0.00 66 1008.9
20260505050402 67 227 1.0 1.0 0.00 0.00 0.00 67 1008.5
20260505041330 64 218 0.0 1.0 0.00 0.00 0.00 74 1008.1
20260505040827 61 241 0.0 0.0 0.00 0.00 0.00 81 1008.2
20260505040324 59 231 0.0 0.0 0.00 0.00 0.00 88 1008.0
20260505035821 58 297 1.0 2.0 0.00 0.00 0.00 89 1008.0
20260505035317 58 218 0.0 0.0 0.00 0.00 0.00 89 1008.2
20260505034814 58 287 0.0 0.0 0.00 0.00 0.00 89 1008.2
20260505034311 58 282 0.0 0.0 0.00 0.00 0.00 89 1008.2
20260505033808 58 302 0.0 1.0 0.00 0.00 0.00 89 1008.1
20260505033305 58 321 0.0 1.0 0.00 0.00 0.00 88 1008.2
20260505032803 59 21 1.0 2.0 0.00 0.00 0.00 88 1007.9
20260505032259 58 320 0.0 1.0 0.00 0.00 0.00 88 1008.0
20260505031756 59 326 1.0 1.0 0.00 0.00 0.00 87 1008.1
20260505031252 59 300 0.0 1.0 0.00 0.00 0.00 87 1008.3
20260505030749 59 308 1.0 1.0 0.00 0.00 0.00 86 1007.9
20260505030246 60 320 0.0 1.0 0.00 0.00 0.00 85 1008.2
20260505025741 60 273 0.0 0.0 0.00 0.00 0.00 84 1008.3
20260505025240 61 237 0.0 1.0 0.00 0.00 0.00 82 1008.2
20260505024738 62 199 0.0 0.0 0.00 0.00 0.00 80 1008.1
20260505024235 63 226 0.0 0.0 0.00 0.00 0.00 78 1008.0
20260505023732 64 226 0.0 0.0 0.00 0.00 0.00 74 1008.1
20260505023229 64 216 0.0 0.0 0.00 0.00 0.00 75 1008.2
20260505022726 64 226 1.0 1.0 0.00 0.00 0.00 75 1007.8
20260505022223 64 206 0.0 0.0 0.00 0.00 0.00 75 1008.0
20260505021720 63 233 1.0 1.0 0.00 0.00 0.00 75 1007.9
20260505021217 62 211 1.0 2.0 0.00 0.00 0.00 79 1008.0
20260505020712 62 222 0.0 0.0 0.00 0.00 0.00 79 1007.9
20260505020208 63 221 0.0 1.0 0.00 0.00 0.00 78 1007.9
20260505015706 63 233 1.0 1.0 0.00 0.00 0.00 78 1007.8
20260505015202 64 224 0.0 0.0 0.00 0.00 0.00 77 1007.8
20260505014659 64 246 0.0 0.0 0.00 0.00 0.00 77 1007.7
20260505014156 64 220 0.0 0.0 0.00 0.00 0.00 74 1007.7
20260505013653 65 228 0.0 0.0 0.00 0.00 0.00 73 1007.8
20260505013151 66 192 0.0 1.0 0.00 0.00 0.00 72 1007.8
20260505012649 66 210 0.0 1.0 0.00 0.00 0.00 71 1007.8
20260505012146 66 215 0.0 0.0 0.00 0.00 0.00 71 1007.8
20260505011641 67 219 0.0 0.0 0.00 0.00 0.00 70 1007.7
20260505011139 67 156 1.0 2.0 0.00 0.00 0.00 70 1007.5
20260505010634 67 221 0.0 0.0 0.00 0.00 0.00 69 1007.8
20260505010131 67 217 0.0 0.0 0.00 0.00 0.00 69 1007.8
20260505005627 67 211 1.0 1.0 0.00 0.00 0.00 68 1007.8
20260505005124 67 214 1.0 1.0 0.00 0.00 0.00 68 1007.6
20260505004621 67 195 2.0 2.0 0.00 0.00 0.00 68 1007.6
20260505004117 68 212 1.0 1.0 0.00 0.00 0.00 68 1007.5
20260505003614 68 194 1.0 1.0 0.00 0.00 0.00 67 1007.7
20260505003112 68 204 1.0 1.0 0.00 0.00 0.00 66 1007.8
20260505002608 69 210 0.0 1.0 0.00 0.00 0.00 65 1007.8
20260505002107 69 211 1.0 1.0 0.00 0.00 0.00 65 1007.7
20260505001603 70 202 3.0 3.0 0.00 0.00 0.00 64 1007.9
20260505001101 70 222 0.0 0.0 0.00 0.00 0.00 64 1007.9
20260505000558 70 190 1.0 1.0 0.00 0.00 0.00 63 1008.1
20260505000056 70 190 2.0 2.0 0.00 0.00 0.00 63 1007.9
20260504235552 71 222 0.0 1.0 0.00 0.00 0.00 62 1007.9
20260504235048 71 217 0.0 0.0 0.00 0.00 0.00 62 1007.9
20260504234545 71 212 0.0 1.0 0.00 0.00 0.00 62 1008.0
20260504234042 71 217 0.0 0.0 0.00 0.00 0.00 61 1008.1
20260504233537 72 223 1.0 2.0 0.00 0.00 0.00 60 1008.2
20260504233035 72 196 1.0 1.0 0.00 0.00 0.00 60 1008.0
20260504232532 73 232 2.0 2.0 0.00 0.00 0.00 58 1008.2
20260504232030 73 213 2.0 3.0 0.00 0.00 0.00 58 1008.2
20260504231526 73 256 2.0 3.0 0.00 0.00 0.00 58 1008.3
20260504231022 73 181 2.0 2.0 0.00 0.00 0.00 57 1008.1
20260504230518 73 238 2.0 2.0 0.00 0.00 0.00 57 1008.2
20260504230012 73 229 5.0 6.0 0.00 0.00 0.00 57 1008.4
20260504225509 74 165 2.0 5.0 0.00 0.00 0.00 57 1008.5
20260504225006 74 238 2.0 2.0 0.00 0.00 0.00 57 1008.6
20260504224503 73 262 6.0 7.0 0.00 0.00 0.00 57 1008.6
20260504224000 73 259 3.0 3.0 0.00 0.00 0.00 58 1008.7
20260504223456 73 250 8.0 9.0 0.00 0.00 0.00 58 1008.7
20260504222951 73 220 7.0 8.0 0.00 0.00 0.00 57 1008.7
20260504222449 73 248 3.0 5.0 0.00 0.00 0.00 58 1008.9
20260504221947 72 246 8.0 11.0 0.00 0.00 0.00 57 1009.0
20260504221444 71 244 7.0 9.0 0.00 0.00 0.00 58 1008.9
20260504220941 71 237 3.0 5.0 0.00 0.00 0.00 59 1009.1
20260504220437 71 266 5.0 7.0 0.00 0.00 0.00 58 1009.1
20260504215934 72 268 8.0 10.0 0.00 0.00 0.00 58 1008.9
20260504215431 72 249 6.0 8.0 0.00 0.00 0.00 58 1008.9
20260504214927 72 238 2.0 2.0 0.00 0.00 0.00 58 1008.7
20260504214424 72 242 6.0 8.0 0.00 0.00 0.00 58 1008.9
20260504213921 72 252 4.0 7.0 0.00 0.00 0.00 59 1008.6
20260504213416 72 292 3.0 3.0 0.00 0.00 0.00 58 1008.8
20260504212914 73 321 10.0 14.0 0.00 0.00 0.00 56 1008.8
20260504212409 73 237 3.0 3.0 0.00 0.00 0.00 58 1008.7
20260504211908 73 223 1.0 1.0 0.00 0.00 0.00 58 1008.8
20260504211404 73 267 5.0 6.0 0.00 0.00 0.00 58 1008.7
20260504210901 72 265 5.0 5.0 0.00 0.00 0.00 58 1008.7
20260504210358 72 206 3.0 3.0 0.00 0.00 0.00 58 1008.8
20260504205855 72 217 3.0 3.0 0.00 0.00 0.00 57 1008.7
20260504205353 72 261 8.0 10.0 0.00 0.00 0.00 57 1009.0
20260504204850 72 239 6.0 8.0 0.00 0.00 0.00 57 1008.9
20260504204349 72 270 12.0 13.0 0.00 0.00 0.00 57 1009.0
20260504203848 72 262 9.0 13.0 0.00 0.00 0.00 56 1009.2
20260504203344 74 247 9.0 13.0 0.00 0.00 0.00 56 1008.9
20260504202840 74 212 5.0 6.0 0.00 0.00 0.00 55 1008.8
20260504202338 74 263 5.0 8.0 0.00 0.00 0.00 55 1008.6
20260504201834 74 285 5.0 5.0 0.00 0.00 0.00 54 1008.7
20260504201332 73 266 4.0 5.0 0.00 0.00 0.00 56 1008.7
20260504200829 73 235 6.0 9.0 0.00 0.00 0.00 56 1008.6
20260504200325 74 244 2.0 2.0 0.00 0.00 0.00 56 1008.8
20260504195822 72 249 2.0 2.0 0.00 0.00 0.00 57 1008.7
20260504195317 72 288 3.0 5.0 0.00 0.00 0.00 58 1008.7
20260504194814 71 240 3.0 3.0 0.00 0.00 0.00 58 1009.0
20260504194311 71 207 3.0 3.0 0.00 0.00 0.00 57 1009.3
20260504193807 71 198 2.0 2.0 0.00 0.00 0.00 58 1009.0
20260504193304 71 239 2.0 2.0 0.00 0.00 0.00 59 1009.0
20260504192803 71 235 10.0 13.0 0.00 0.00 0.00 57 1009.3
20260504192300 72 274 5.0 6.0 0.00 0.00 0.00 57 1009.2
20260504191759 73 72 3.0 3.0 0.00 0.00 0.00 56 1009.3
20260504191256 74 247 7.0 10.0 0.00 0.00 0.00 55 1009.4
20260504190751 73 238 4.0 6.0 0.00 0.00 0.00 55 1009.3
20260504190248 73 290 6.0 8.0 0.00 0.00 0.00 55 1009.4
20260504185744 73 214 5.0 7.0 0.00 0.00 0.00 55 1009.5
20260504185241 72 258 3.0 3.0 0.00 0.00 0.00 58 1009.5
20260504184737 72 208 5.0 7.0 0.00 0.00 0.00 57 1009.6
20260504184233 71 42 5.0 7.0 0.00 0.00 0.00 58 1009.5
20260504183729 71 237 3.0 5.0 0.00 0.00 0.00 58 1009.7
20260504183226 72 212 5.0 6.0 0.00 0.00 0.00 57 1009.9
20260504182724 72 245 6.0 8.0 0.00 0.00 0.00 58 1009.9
20260504182221 72 205 7.0 10.0 0.00 0.00 0.00 57 1009.7
20260504181719 72 224 7.0 11.0 0.00 0.00 0.00 57 1009.7
20260504181216 73 264 5.0 9.0 0.00 0.00 0.00 57 1009.7
20260504180715 73 235 2.0 3.0 0.00 0.00 0.00 57 1009.5
20260504180213 71 251 2.0 2.0 0.00 0.00 0.00 58 1009.9
20260504175710 71 295 10.0 11.0 0.00 0.00 0.00 58 1010.0
20260504175207 71 273 6.0 7.0 0.00 0.00 0.00 58 1009.6
20260504174705 71 299 11.0 11.0 0.00 0.00 0.00 57 1009.7
20260504174203 71 250 5.0 7.0 0.00 0.00 0.00 58 1009.9
20260504173659 71 206 7.0 9.0 0.00 0.00 0.00 57 1010.0
20260504173156 71 232 3.0 5.0 0.00 0.00 0.00 58 1010.1
20260504172652 70 259 4.0 6.0 0.00 0.00 0.00 57 1010.0
20260504172149 69 286 10.0 15.0 0.00 0.00 0.00 59 1010.0
20260504171645 70 183 7.0 8.0 0.00 0.00 0.00 58 1010.3
20260504171143 70 261 7.0 10.0 0.00 0.00 0.00 58 1010.3
20260504170639 69 245 3.0 5.0 0.00 0.00 0.00 59 1010.0
20260504170137 70 255 7.0 8.0 0.00 0.00 0.00 60 1010.3
20260504151022 62 192 2.0 3.0 0.00 0.00 0.00 66 1011.9
20260504150519 62 238 3.0 5.0 0.00 0.00 0.00 66 1012.3
20260504140945 61 252 8.0 10.0 0.00 0.00 0.00 63 1012.5
20260504140442 61 255 7.0 9.0 0.00 0.00 0.00 63 1012.4
20260504130406 58 287 7.0 8.0 0.00 0.00 0.00 63 1012.2